THORAD DELTA 1 DEB, 17728

Orbit data source: Space-Track

THORAD DELTA 1 DEB, 17728 is space debris in SSO originally from a launch on Fri, 15 Nov 1974 UTC launched from the Air Force Western Test Range (AFWTR). Debris objects in space refer to the collection of defunct objects orbiting the Earth. Examples of debris include non-operational satellites, rocket bodies, and fragments generated from explosions, collisions, or faulty payload assembly.

Loading next visibility...
Identifier
17728, 1974-089EX
Orbit
SSO
Country
Flag of USUS
Related business
Manufacturer
Unknown
Mission
Spacecraft
Bus & Motor
Unknown
Mass
Unknown
Launch date (UTC)
1974-11-15 (51 years ago)
Launch vehicle
Unknown
Launch site
Air Force Western Test Range (AFWTR)
Object type
Payload
Rocket body
Debris
Shape & HBR
Unknown shape, 0.1 m
Radar Cross Section
Small (<0.1 m²)

Expand to show TLE details & history
Last TLE update: 22 hours ago

TLE from 22 hours ago
0 THORAD DELTA 1 DEB
1 17728U 74089EX  26035.40965734  .00000003  00000-0  34095-3 0  9994
2 17728 101.4488 193.0862 0107071 132.6404 254.3546 12.35132870845882
Epoch: 2026-02-04T09:49Z
TLE epoch observation values (Epoch: 2026-02-04T09:49:54.394Z)
Latitude
25.29681°
Longitude
-94.43296°
Altitude
1,553.731 km
Speed
7.082 km/s
True Right ascension
12h 30m 28s
True Declination
25° 10' 39"
Sunlit
Object was in full shadow at epoch
Visualization orbit readout
Latitude
Unknown
Longitude
Unknown
Altitude
Unknown
Speed
Unknown
Apparent Right ascension
Unknown
Apparent Declination
Unknown
Sunlit
N/A
Visualization observer readout
Local Sidereal Time
10:11:13
Azimuth
Unknown
Elevation
Unknown
Doppler factor
Unknown
Orbital elements
Apogee altitude
1,609.47 km
Perigee altitude
1,440.234 km
Semi-major axis
7,902.989 km
Eccentricity
0.01071
Inclination
101.4488°
RAAN
193.0862°
Arg. of periapsis
132.6404°
True anomaly
253.17745°
Mean anomaly
254.3546°
Eccentric anomaly
253.76559°
Mean motion
3.08927 °/min
Orbital period
116.53 mins
BSTAR
0.00034095
Loading maneuver chart data...
Computing Atmospheric mass density...

Documentation

Showing up to 5 results
|